Regional Weather Roundup
Issued by NWS

Home | Current Version | Previous Version | Graphics & Text | Print | Product List | Glossary On
Versions: 1 2 3 4 5 6 7 8 9 10 11 12 13 14 15 16 17 18 19 20 21 22 23 24 25 26 27 28 29 30 31 32 33 34 35 36 37 38 39 40 41 42 43 44 45 46 47 48 49 50
000
ASUS45 KBOU 272010
RWRCO

WEATHER ROUNDUP FOR COLORADO
NATIONAL WEATHER SERVICE DENVER/BOULDER CO
200 PM MDT MON JUL 27 2015

NOTE: "FAIR" INDICATES FEW OR NO CLOUDS BELOW 12000 FEET WITH NO
SIGNIFICANT WEATHER AND/OR OBSTRUCTIONS TO VISIBILITY.

COZ001>005-013-030-031-272100-
...NORTHWEST COLORADO...

CITY           SKY/WX    TMP DP  RH WIND       PRES   REMARKS
CRAIG          MOSUNNY   88  41  19 SW28G40   29.96F
HAYDEN         MOSUNNY   84  37  18 S22G30    29.99F
MEEKER         PTSUNNY   85  42  22 SW16G25   30.00F
MOUNT WERNER   NOT AVBL
STEAMBOAT SPGS PTSUNNY   80  42  26 S8G18     30.02S
WALDEN         PTSUNNY   77  34  20 S29G36    30.12R
$$

COZ006>008-011-272100-
...WEST CENTRAL VALLEYS...

CITY           SKY/WX    TMP DP  RH WIND       PRES   REMARKS
GRAND JUNCTION SUNNY     93  39  15 S21G30    29.90F
MONTROSE       SUNNY     89  43  20 SW23G33   30.02F
EAGLE          MOSUNNY   84  39  20 SW26G44   30.04F
RIFLE          MOSUNNY   91  41  17 S25G35    29.94F
DELTA          SUNNY     95  36  12 SW22G33   29.97F
NUCLA          MOSUNNY   88  32  13 S15G29    30.09F
$$

COZ017>023-064>068-272100-
...SOUTHWEST COLORADO...

CITY           SKY/WX    TMP DP  RH WIND       PRES   REMARKS
DURANGO        SUNNY     82  37  20 W8        30.16F
CORTEZ         SUNNY     87  37  17 SW12      30.09F
PAGOSA SPRINGS MOSUNNY   78  38  24 S8        30.25F
TELLURIDE      PTSUNNY   71  39  31 S3        30.33F
WOLF CREEK PAS NOT AVBL
$$

COZ009-010-012-014-032>034-037-058>063-272100-
...CENTRAL COLORADO...

CITY           SKY/WX    TMP DP  RH WIND       PRES   REMARKS
ASPEN          MOSUNNY   78  43  28 SW7       30.14F
BUENA VISTA    PTSUNNY   77  42  27 SE18      30.16F
COPPER MTN     PTSUNNY   64  32  29 S18G25    30.50S
BERTHOUD PASS  FAIR      54  45  71 W17       30.54F
COTTONWOOD PAS PTSUNNY   79  34  19 SW5       30.32F
GUNNISON       MOSUNNY   79  43  27 SW8       30.19F
KREMMLING      PTSUNNY   84  27  12 SW29G37   30.09F
LEADVILLE      PTSUNNY   68  34  28 SW9       30.30F
MONARCH PASS   PTSUNNY   54  45  71 W21       30.61F
SALIDA         CLOUDY    74  48  38 W10G23    30.23
SUNLIGHT       PTSUNNY   68  46  45 CALM      30.40S
WILKERSON PASS CLOUDY    70  37  30 SW7       30.47F
$$

COZ069>075-272100-
...SAN LUIS VALLEY/SANGRE DE CRISTO MOUNTAINS...

CITY           SKY/WX    TMP DP  RH WIND       PRES   REMARKS
ALAMOSA        PTSUNNY   80  49  33 S10       30.19F
LA VETA PASS   MOSUNNY   59  43  55 MISG      30.40S
SAGUACHE       MOSUNNY   72  54  53 SE8       30.22F
$$

COZ035-036-038>040-272100-
...NORTHERN COLORADO FRONT RANGE...

CITY           SKY/WX    TMP DP  RH WIND       PRES   REMARKS
DENVER INTL AP PTSUNNY   92  42  17 SE9       29.89F
DMNS CITY PARK   N/A     90  44  20 NW6       29.86F
AURORA         PTSUNNY   91  46  20 SW16      29.91F
FRONT RANGE AP PTSUNNY   91  37  15 CALM      29.91F
ERIE MUNI ARPT PTSUNNY   95  40  15 S9        29.87S
BOULDER MUN AP PTSUNNY   90  48  24 SE7       29.87F
CENTENNIAL     CLOUDY    89  43  20 SW15      29.93F
BROOMFIELD     PTSUNNY   90  45  20 SE7       29.92F
FORT COLLINS   MOSUNNY   91  55  29 SE9       29.84F
LONGMONT       MOSUNNY   98  48  18 SE7       29.87F
$$

COZ041-046-047-076>085-087-088-272100-
...PIKES PEAK/PALMER DIVIDE AND SOUTHERN FOOTHILLS...

CITY           SKY/WX    TMP DP  RH WIND       PRES   REMARKS
COLO. SPRINGS  PTSUNNY   89  46  22 SW15G21   30.00F
A. F. ACADEMY  PTSUNNY   86  39  19 SW12      30.02F
ELLICOTT       PTSUNNY  N/A N/A N/A W17G30    30.00F
FALCON         PTSUNNY   85  46  25 SW8G16    30.08F
FORT CARSON    NOT AVBL
LIMON          MOSUNNY   87  51  28 SW12      29.94F
MONUMENT HILL  PTSUNNY   79  48  34 SW8       30.08S
TRINIDAD       TSTM      88  52  29 W12       30.00F
$$

COZ042>045-048>051-090-091-272100-
...NORTHEAST COLORADO...

CITY           SKY/WX    TMP DP  RH WIND       PRES   REMARKS
GREELEY ARPT   MOSUNNY   91  50  24 E6        29.84F
AKRON            N/A    N/A N/A N/A MISG      29.85F
BURLINGTON     SUNNY     89  65  44 S23G29    29.88F
WRAY           MOSUNNY   94  59  30 S18G26    29.82F
STERLING       NOT AVBL
HOLYOKE        MOSUNNY   95  63  34 S12G20    29.81F
FORT MORGAN    MOSUNNY   90  58  34 SE8       29.85F
$$

COZ086-089-092>099-272100-
...SOUTHEAST COLORADO...

CITY           SKY/WX    TMP DP  RH WIND       PRES   REMARKS
PUEBLO         MOSUNNY   98  45  16 W13G18    29.89F
LA JUNTA       SUNNY     99  49  18 S5G17     29.86F
LAMAR          SUNNY     98  62  30 S20G26    29.82F
SPRINGFIELD      N/A     93  61  34 SW18G28   29.93F
$$



USA.gov is the U.S. government's official web portal to all federal, state and local government web resources and services.